COSMOS 249 DEB, 14430

Orbit data source: Space-Track

COSMOS 249 DEB, 14430 is space debris in LEO originally from a launch on Sun, 20 Oct 1968 UTC launched from the Tyuratam Missile And Space Complex (TTMTR). Debris objects in space refer to the collection of defunct objects orbiting the Earth. Examples of debris include non-operational satellites, rocket bodies, and fragments generated from explosions, collisions, or faulty payload assembly.

Loading next visibility...
Identifier
14430, 1968-091CV
Orbit
LEO
Country
Flag of CISCIS
Related business
Manufacturer
Unknown
Mission
Spacecraft
Bus & Motor
Unknown
Mass
Unknown
Launch date (UTC)
1968-10-20 (57 years ago)
Launch vehicle
Unknown
Launch site
Tyuratam Missile And Space Complex (TTMTR)
Object type
Payload
Rocket body
Debris
Shape & HBR
Unknown shape, 1.1 m
Radar Cross Section
Small (<0.1 m²)

Expand to show TLE details & history
Last TLE update: 1 day ago

TLE from 1 day ago
0 COSMOS 249 DEB
1 14430U 68091CV  25287.76954741  .00002705  00000-0  29868-2 0  9992
2 14430  62.2367 162.2933 0685859 121.1997 357.4066 13.00917236 68947
Epoch: 2025-10-14T18:28Z
TLE epoch observation values (Epoch: 2025-10-14T18:28:08.896Z)
Latitude
51.36446°
Longitude
0.78158°
Altitude
742.352 km
Speed
7.742 km/s
True Right ascension
20h 05m 29s
True Declination
51° 11' 46"
Sunlit
Object was in daylight at epoch
Visualization orbit readout
Latitude
Unknown
Longitude
Unknown
Altitude
Unknown
Speed
Unknown
Apparent Right ascension
Unknown
Apparent Declination
Unknown
Sunlit
N/A
Visualization observer readout
Local Sidereal Time
17:40:31
Azimuth
Unknown
Elevation
Unknown
Doppler factor
Unknown
Orbital elements
Apogee altitude
1,781.186 km
Perigee altitude
733.793 km
Semi-major axis
7,635.627 km
Eccentricity
0.06859
Inclination
62.2367°
RAAN
162.2933°
Arg. of periapsis
121.1997°
True anomaly
357.01781°
Mean anomaly
357.4066°
Eccentric anomaly
357.21571°
Mean motion
3.25294 °/min
Orbital period
110.67 mins
BSTAR
0.0029868
Loading maneuver chart data...
Computing Atmospheric mass density...

Documentation

Showing up to 5 results
|